{"data":{"norad_id":65398,"epoch":"2026-05-25T02:20:13.326144Z","epoch_age_seconds":70095,"freshness":"FRESH","line1":"1 65398U 25191V   26145.09737646  .00003895  00000+0  27378-3 0  9993","line2":"2 65398  97.4522  16.4194 0002392  84.8034 275.3466 15.05656906 41764","mean_motion":15.05656906,"eccentricity":0.0002392,"inclination_deg":97.4522,"raan_deg":16.4194,"arg_perigee_deg":84.8034,"mean_anomaly_deg":275.3466,"bstar":0.00027378,"rev_number":4176,"period_min":95.639318244524,"perigee_km":547.83288227837,"apogee_km":551.14705902113,"semimajor_km":6927.6269706498,"source":"CELESTRAK","updated_at":"2026-05-25T13:38:20.796463Z"}}